Back to catalog

FENGYUN 1C DEB

AlivePO
NORAD 31619·DEBRIS·🇨🇳 China

Launched May 10, 1999 from Taiyuan Satellite Launch Center

Loading…

Next Passes (next 24 hours)

TLE

FreshSource: Space-Track

Epoch: Sep 13, 2026, 22:27 UTC

1 31619U 99025BZZ 26256.93549793  .00124859  00000-0  46644-2 0  9990
2 31619  99.0395 141.5248 0043399 111.0769 249.5113 15.25952654676250

Track FENGYUN 1C DEB in real time with AllMySat

Download on the App Store